TimeCST,TemperatureF,Dew PointF,Humidity,Sea Level PressureIn,VisibilityMPH,Wind Direction,Wind SpeedMPH,Gust SpeedMPH,PrecipitationIn,Events,Conditions,WindDirDegrees,DateUTC
12:15 AM,12.2,5.9,76,30.14,10.0,South,9.2,-,N/A,Snow,Light Snow,170,2014-02-08 06:15:00
12:35 AM,12.2,6.6,78,30.14,7.0,South,6.9,-,N/A,Snow,Light Snow,170,2014-02-08 06:35:00
12:55 AM,12.2,6.8,79,30.14,7.0,SSE,9.2,-,N/A,Snow,Light Snow,160,2014-02-08 06:55:00
1:15 AM,12.2,7.0,80,30.11,10.0,SSE,8.1,-,N/A,Snow,Light Snow,150,2014-02-08 07:15:00
1:35 AM,12.2,7.2,80,30.11,10.0,SSE,9.2,-,N/A,,Overcast,160,2014-02-08 07:35:00
1:55 AM,12.6,7.3,80,30.11,10.0,SSE,6.9,-,N/A,,Overcast,160,2014-02-08 07:55:00
2:15 AM,12.7,7.7,80,30.11,10.0,SSE,8.1,-,N/A,,Overcast,160,2014-02-08 08:15:00
2:35 AM,12.9,7.7,80,30.09,10.0,SSE,8.1,-,N/A,Snow,Light Snow,160,2014-02-08 08:35:00
2:55 AM,13.1,8.1,80,30.10,10.0,South,9.2,-,N/A,,Overcast,170,2014-02-08 08:55:00
3:15 AM,13.1,8.2,81,30.09,10.0,South,9.2,-,N/A,Snow,Light Snow,180,2014-02-08 09:15:00
3:35 AM,13.5,8.1,79,30.07,10.0,SSE,11.5,-,N/A,Snow,Light Snow,160,2014-02-08 09:35:00
3:55 AM,13.3,8.2,80,30.08,10.0,South,9.2,-,N/A,Snow,Light Snow,170,2014-02-08 09:55:00
4:15 AM,13.3,8.4,81,30.09,10.0,South,8.1,-,N/A,,Overcast,180,2014-02-08 10:15:00
4:35 AM,13.1,8.4,82,30.07,10.0,SSE,8.1,-,N/A,,Overcast,160,2014-02-08 10:35:00
4:55 AM,13.5,8.6,81,30.08,10.0,South,8.1,-,N/A,,Overcast,170,2014-02-08 10:55:00
5:15 AM,13.6,8.6,80,30.08,10.0,South,8.1,-,N/A,,Overcast,170,2014-02-08 11:15:00
5:35 AM,13.6,8.6,80,30.05,10.0,SSE,10.4,-,N/A,Snow,Light Snow,150,2014-02-08 11:35:00
5:55 AM,14.0,9.1,81,30.04,10.0,SSE,11.5,-,N/A,,Overcast,160,2014-02-08 11:55:00
6:15 AM,14.4,9.5,81,30.03,10.0,SSE,10.4,-,N/A,,Overcast,160,2014-02-08 12:15:00
6:35 AM,14.7,9.9,81,30.04,10.0,SSE,8.1,-,N/A,,Overcast,160,2014-02-08 12:35:00
6:55 AM,14.5,10.0,82,30.04,10.0,SSE,8.1,-,N/A,,Overcast,160,2014-02-08 12:55:00
7:15 AM,14.5,10.2,83,30.03,10.0,SSE,8.1,-,N/A,,Overcast,160,2014-02-08 13:15:00
7:35 AM,14.7,10.4,83,30.04,10.0,SSE,5.8,-,N/A,,Overcast,160,2014-02-08 13:35:00
7:55 AM,14.9,10.9,84,30.04,10.0,SSE,5.8,-,N/A,,Overcast,160,2014-02-08 13:55:00
8:15 AM,16.0,12.0,84,30.05,10.0,South,9.2,-,N/A,,Overcast,180,2014-02-08 14:15:00
8:35 AM,16.7,12.4,83,30.06,10.0,South,10.4,-,N/A,,Overcast,190,2014-02-08 14:35:00
8:55 AM,17.4,12.7,82,30.05,7.0,South,9.2,-,N/A,,Overcast,190,2014-02-08 14:55:00
9:15 AM,17.6,13.1,83,30.05,7.0,South,10.4,-,N/A,,Overcast,180,2014-02-08 15:15:00
9:35 AM,18.5,14.0,83,30.05,7.0,South,10.4,-,N/A,,Overcast,190,2014-02-08 15:35:00
9:55 AM,19.4,14.4,81,30.05,7.0,SSW,9.2,-,N/A,,Overcast,200,2014-02-08 15:55:00
10:15 AM,20.3,15.3,81,30.05,7.0,SSW,10.4,-,N/A,,Overcast,200,2014-02-08 16:15:00
10:35 AM,21.4,16.3,81,30.04,5.0,SW,12.7,-,N/A,,Haze,220,2014-02-08 16:35:00
10:55 AM,22.1,16.7,80,30.04,5.0,SW,12.7,-,N/A,,Haze,220,2014-02-08 16:55:00
11:15 AM,22.8,16.7,77,30.04,5.0,SW,11.5,-,N/A,,Haze,230,2014-02-08 17:15:00
11:35 AM,23.7,16.9,75,30.04,7.0,SW,11.5,-,N/A,,Overcast,230,2014-02-08 17:35:00
11:55 AM,24.3,16.5,72,30.03,7.0,SW,12.7,-,N/A,,Overcast,230,2014-02-08 17:55:00
12:15 PM,24.6,16.0,70,30.03,7.0,WSW,10.4,-,N/A,,Overcast,250,2014-02-08 18:15:00
12:35 PM,25.7,17.1,70,30.03,7.0,WSW,11.5,-,N/A,,Overcast,240,2014-02-08 18:35:00
12:55 PM,26.2,17.2,69,30.02,7.0,WSW,9.2,-,N/A,,Overcast,250,2014-02-08 18:55:00
1:15 PM,26.6,17.4,68,30.01,7.0,SW,6.9,-,N/A,,Overcast,230,2014-02-08 19:15:00
1:35 PM,26.6,17.1,67,30.01,7.0,West,5.8,-,N/A,,Overcast,260,2014-02-08 19:35:00
1:55 PM,27.0,17.4,67,30.00,7.0,WSW,6.9,-,N/A,,Overcast,240,2014-02-08 19:55:00
2:15 PM,27.5,17.6,66,30.01,7.0,WSW,8.1,-,N/A,,Overcast,250,2014-02-08 20:15:00
2:35 PM,27.9,17.4,65,30.02,7.0,WSW,6.9,-,N/A,,Overcast,250,2014-02-08 20:35:00
2:55 PM,28.4,16.9,62,30.02,7.0,WSW,8.1,-,N/A,,Overcast,250,2014-02-08 20:55:00
3:15 PM,29.8,16.3,57,30.02,7.0,WNW,6.9,-,N/A,,Mostly Cloudy,290,2014-02-08 21:15:00
3:35 PM,28.9,16.2,59,30.02,10.0,West,4.6,-,N/A,,Mostly Cloudy,270,2014-02-08 21:35:00
3:55 PM,28.4,16.0,60,30.03,10.0,WNW,6.9,-,N/A,,Mostly Cloudy,300,2014-02-08 21:55:00
4:15 PM,27.9,15.4,60,30.03,10.0,NW,6.9,-,N/A,,Mostly Cloudy,310,2014-02-08 22:15:00
4:35 PM,27.5,15.3,60,30.04,10.0,NW,6.9,-,N/A,,Overcast,310,2014-02-08 22:35:00
4:55 PM,27.0,14.7,60,30.05,10.0,WNW,6.9,-,N/A,,Overcast,300,2014-02-08 22:55:00
5:15 PM,26.2,14.9,62,30.06,10.0,NW,8.1,-,N/A,,Overcast,310,2014-02-08 23:15:00
5:35 PM,25.7,14.4,62,30.07,10.0,NW,8.1,-,N/A,,Overcast,310,2014-02-08 23:35:00
5:55 PM,25.3,14.5,64,30.09,10.0,NW,9.2,-,N/A,,Overcast,310,2014-02-08 23:55:00
6:15 PM,24.8,14.2,64,30.09,10.0,NW,6.9,-,N/A,,Overcast,320,2014-02-09 00:15:00
6:35 PM,24.3,14.5,67,30.11,10.0,NNW,6.9,-,N/A,,Scattered Clouds,330,2014-02-09 00:35:00
6:55 PM,24.4,14.5,66,30.11,10.0,NNW,4.6,-,N/A,,Mostly Cloudy,340,2014-02-09 00:55:00
7:15 PM,24.4,14.5,66,30.11,10.0,NNW,4.6,-,N/A,,Overcast,340,2014-02-09 01:15:00
7:35 PM,23.9,15.8,71,30.11,10.0,North,5.8,-,N/A,,Overcast,350,2014-02-09 01:35:00
7:55 PM,23.9,16.7,74,30.11,10.0,North,8.1,-,N/A,,Overcast,360,2014-02-09 01:55:00
8:15 PM,23.0,17.6,80,30.12,7.0,North,9.2,-,N/A,,Overcast,360,2014-02-09 02:15:00
8:35 PM,22.8,18.0,82,30.11,5.0,North,9.2,-,N/A,Snow,Light Snow,10,2014-02-09 02:35:00
8:55 PM,22.1,18.1,85,30.11,3.0,NNE,8.1,-,N/A,Snow,Light Snow,20,2014-02-09 02:55:00
9:15 PM,21.9,18.3,86,30.11,4.0,North,5.8,-,N/A,Snow,Light Snow,360,2014-02-09 03:15:00
9:35 PM,22.1,18.5,86,30.12,5.0,North,8.1,-,N/A,,Overcast,360,2014-02-09 03:35:00
9:55 PM,21.9,18.5,87,30.13,5.0,North,4.6,-,N/A,,Overcast,360,2014-02-09 03:55:00
10:15 PM,21.7,18.3,87,30.14,5.0,North,3.5,-,N/A,,Overcast,360,2014-02-09 04:15:00
10:35 PM,21.7,18.1,86,30.16,5.0,North,3.5,-,N/A,,Overcast,360,2014-02-09 04:35:00
10:55 PM,21.7,18.1,86,30.16,5.0,North,4.6,-,N/A,,Overcast,350,2014-02-09 04:55:00
11:15 PM,21.7,18.1,86,30.18,5.0,North,6.9,-,N/A,,Overcast,350,2014-02-09 05:15:00
11:35 PM,21.7,18.0,85,30.19,5.0,North,3.5,-,N/A,,Overcast,350,2014-02-09 05:35:00
11:55 PM,21.2,17.4,85,30.20,5.0,North,3.5,-,N/A,,Overcast,360,2014-02-09 05:55:00